Total_Precipitation_Accumulation
1.41 1.13 1.80 1.87 1.71 1.49 1.38 1.39 1.53 1.62 1.58 1.46 1.44 1.36 1.23 1.06 0.91 0.80 0.72 0.71 0.68 0.64 0.63 0.64 0.68 0.70 0.70 0.67 0.73 0.80 0.83 0.73 0.72 0.71 0.63 0.64 0.75 0.75 0.74 0.95 1.43 1.82 1.20
0.86 0.90 1.72 1.87 1.64 1.47 1.35 1.40 1.62 1.68 1.68 1.56 1.41 1.29 1.14 0.97 0.86 0.76 0.74 0.68 0.67 0.64 0.63 0.63 0.65 0.72 0.75 0.70 0.74 0.82 0.80 0.77 0.82 0.87 0.87 0.89 0.84 0.81 0.81 0.93 1.32 1.62 1.19
0.67 0.79 1.30 1.78 1.64 1.51 1.45 1.45 1.54 1.62 1.57 1.35 1.27 1.22 1.10 0.95 0.85 0.78 0.70 0.66 0.63 0.65 0.58 0.55 0.60 0.69 0.74 0.78 0.76 0.74 0.71 0.77 0.87 1.04 1.43 1.89 1.34 0.98 0.97 0.90 1.10 1.16 1.07
0.70 0.77 1.00 1.60 1.68 1.59 1.51 1.49 1.48 1.46 1.43 1.27 1.18 1.13 1.03 0.98 0.89 0.84 0.75 0.68 0.58 0.53 0.53 0.56 0.55 0.60 0.65 0.68 0.73 0.71 0.66 0.77 0.88 1.07 1.49 1.95 1.78 1.35 1.17 1.10 1.19 1.08 1.07
0.75 0.83 1.13 1.66 1.65 1.60 1.57 1.57 1.61 1.49 1.42 1.27 1.08 1.06 1.02 1.01 0.90 0.87 0.78 0.66 0.58 0.56 0.53 0.56 0.55 0.59 0.67 0.67 0.65 0.66 0.68 0.82 1.00 0.92 1.19 1.62 2.05 1.76 1.32 1.31 1.39 1.21 1.15
0.80 0.87 1.14 1.54 1.59 1.56 1.55 1.57 1.55 1.42 1.33 1.22 1.05 1.04 1.08 1.06 0.96 0.90 0.81 0.71 0.62 0.62 0.57 0.59 0.60 0.68 0.70 0.67 0.66 0.74 0.86 0.91 0.88 0.96 1.23 1.59 2.04 1.83 1.46 1.37 1.27 1.36 1.26
0.82 0.85 1.09 1.48 1.52 1.54 1.45 1.28 1.30 1.31 1.23 1.10 1.03 0.99 0.99 0.98 0.94 0.88 0.90 0.83 0.73 0.70 0.65 0.64 0.64 0.64 0.67 0.71 0.74 0.82 0.93 0.89 0.86 1.09 1.19 1.53 1.63 1.60 1.40 1.31 1.36 1.55 1.44
0.90 0.83 0.94 1.28 1.37 1.36 1.29 1.24 1.30 1.28 1.17 1.02 0.94 0.92 0.92 0.94 0.86 0.79 0.77 0.76 0.76 0.76 0.73 0.68 0.67 0.60 0.63 0.74 0.80 0.89 1.02 0.94 0.83 0.95 0.99 1.29 1.63 1.64 1.31 1.26 1.35 1.52 1.61
1.23 1.05 0.93 1.02 1.17 1.24 1.31 1.31 1.38 1.39 1.28 1.11 0.95 0.92 0.90 0.82 0.69 0.63 0.68 0.71 0.73 0.72 0.73 0.72 0.71 0.66 0.68 0.80 0.86 0.96 1.07 0.96 0.93 0.93 0.81 1.25 1.70 1.54 1.25 1.13 1.18 1.34 1.46
1.22 1.19 1.07 1.01 1.06 1.11 1.20 1.39 1.53 1.63 1.67 1.39 1.06 0.98 0.87 0.72 0.63 0.66 0.66 0.71 0.76 0.81 0.79 0.79 0.80 0.77 0.84 0.86 0.90 0.95 0.94 0.82 0.85 0.83 0.94 1.19 1.64 1.52 1.22 1.06 1.04 1.05 1.14
0.84 0.92 0.98 0.98 1.05 1.02 1.04 1.18 1.46 1.65 1.78 1.46 1.04 1.06 0.91 0.65 0.64 0.71 0.71 0.88 0.96 0.98 0.96 0.99 1.01 1.01 1.00 0.94 0.99 1.03 0.83 0.60 0.72 0.87 1.01 1.28 1.64 1.56 1.23 1.05 0.88 0.87 0.91
0.67 0.63 0.65 0.68 0.74 0.81 0.88 1.13 1.39 1.46 1.57 1.28 1.06 1.10 1.00 1.03 0.96 0.75 0.76 1.01 1.17 1.22 1.12 1.10 1.17 1.09 0.93 0.78 0.80 0.82 0.67 0.63 0.70 0.80 0.94 1.39 1.72 1.58 1.26 1.05 0.85 0.82 0.82
0.51 0.49 0.47 0.49 0.50 0.61 0.84 1.12 1.35 1.43 1.50 1.48 1.49 1.32 1.25 1.19 0.99 0.82 0.78 0.85 0.94 1.03 0.98 1.08 1.09 0.94 0.85 0.75 0.73 0.67 0.60 0.71 0.87 0.82 1.01 1.43 1.76 1.63 1.39 1.19 0.94 0.89 0.88
0.54 0.52 0.45 0.37 0.38 0.48 0.63 0.85 1.15 1.28 1.35 1.36 1.35 1.11 1.16 1.16 0.97 0.91 1.00 1.04 1.00 0.99 1.14 1.19 1.17 1.12 0.94 0.77 0.75 0.78 0.73 0.71 0.87 0.96 1.12 1.28 1.67 1.82 1.60 1.38 1.17 1.11 1.05
0.63 0.70 0.66 0.51 0.45 0.50 0.56 0.59 0.75 0.91 0.98 1.20 1.28 0.98 0.95 0.96 1.00 1.03 0.95 1.10 1.16 1.17 1.17 1.18 1.10 1.06 1.07 0.94 0.95 0.99 0.97 0.81 0.86 0.93 1.05 1.10 1.37 1.81 1.92 1.72 1.54 1.34 1.23
0.48 0.59 0.63 0.62 0.64 0.63 0.55 0.47 0.48 0.54 0.65 0.77 0.80 0.74 0.77 0.79 0.89 1.07 1.01 1.00 1.08 1.26 1.32 1.27 1.17 1.22 1.23 1.06 1.07 1.15 1.11 1.00 1.01 1.03 1.11 1.00 0.94 1.18 1.57 1.82 1.83 1.67 1.47
0.40 0.42 0.50 0.55 0.62 0.67 0.71 0.66 0.52 0.52 0.58 0.59 0.60 0.64 0.70 0.70 0.83 1.00 0.96 0.88 0.88 1.05 1.24 1.37 1.40 1.38 1.25 1.16 1.16 1.18 1.11 1.09 1.07 1.20 1.20 1.15 0.96 0.81 1.01 1.30 1.57 1.68 1.69
0.39 0.37 0.41 0.42 0.49 0.60 0.73 0.78 0.72 0.67 0.62 0.56 0.53 0.48 0.51 0.52 0.61 0.81 0.89 0.81 0.82 1.01 1.23 1.43 1.55 1.58 1.45 1.41 1.45 1.36 1.19 1.16 1.14 1.24 1.24 1.25 1.24 0.99 0.85 0.84 1.00 1.27 1.48
0.36 0.35 0.35 0.37 0.40 0.48 0.60 0.66 0.64 0.61 0.57 0.55 0.54 0.43 0.40 0.42 0.53 0.74 0.93 0.98 0.99 1.10 1.24 1.29 1.51 1.61 1.68 1.60 1.48 1.38 1.29 1.29 1.28 1.21 1.33 1.30 1.29 1.21 1.04 0.76 0.69 0.78 1.02
0.35 0.35 0.35 0.35 0.36 0.39 0.42 0.49 0.53 0.48 0.47 0.52 0.50 0.49 0.52 0.59 0.65 0.85 1.09 1.18 1.30 1.34 1.41 1.57 1.87 1.90 1.79 1.80 1.64 1.46 1.32 1.33 1.37 1.40 1.38 1.33 1.36 1.24 1.09 0.91 0.78 0.56 0.65
0.29 0.30 0.31 0.34 0.35 0.33 0.29 0.33 0.38 0.37 0.46 0.53 0.59 0.64 0.70 0.73 0.80 1.03 1.24 1.49 1.63 1.52 1.55 1.76 2.03 2.21 2.06 1.92 1.98 1.87 1.71 1.53 1.48 1.44 1.41 1.43 1.43 1.35 1.24 1.19 1.05 0.89 0.74
0.18 0.21 0.27 0.27 0.26 0.25 0.23 0.27 0.34 0.41 0.47 0.60 0.75 0.85 0.88 0.86 0.91 0.97 1.18 1.40 1.49 1.55 1.61 1.74 1.97 2.32 2.20 1.98 2.14 2.49 2.28 2.05 1.64 1.35 1.46 1.50 1.52 1.44 1.32 1.18 1.14 1.07 1.00
0.16 0.18 0.22 0.25 0.25 0.23 0.29 0.46 0.72 0.96 1.04 1.05 1.06 1.20 1.29 1.26 1.21 1.18 1.21 1.37 1.47 1.61 1.69 1.74 1.78 2.08 2.22 2.10 2.11 2.59 2.52 2.29 2.13 1.68 1.37 1.42 1.51 1.57 1.53 1.41 1.28 1.21 1.15
0.15 0.19 0.21 0.23 0.28 0.29 0.43 0.75 1.13 1.43 1.51 1.51 1.63 1.67 1.74 1.66 1.52 1.49 1.50 1.59 1.56 1.55 1.56 1.60 1.59 1.80 2.17 2.26 2.12 1.99 1.97 2.04 2.33 2.06 1.56 1.40 1.42 1.44 1.54 1.44 1.45 1.44 1.46
0.22 0.26 0.29 0.34 0.46 0.61 0.75 0.91 1.19 1.37 1.46 1.60 1.76 1.90 2.03 2.13 2.09 2.01 1.95 1.81 1.64 1.56 1.59 1.64 1.64 1.73 1.86 2.03 2.00 1.90 1.89 1.84 1.71 1.88 1.85 1.61 1.43 1.33 1.41 1.47 1.51 1.52 1.60
0.36 0.40 0.44 0.54 0.63 0.69 0.80 0.92 1.06 1.13 1.27 1.45 1.60 1.78 1.93 2.04 2.06 2.00 1.87 1.65 1.49 1.44 1.51 1.64 1.68 1.72 1.72 1.80 1.79 1.71 1.71 1.69 1.61 1.76 1.73 1.73 1.71 1.37 1.26 1.33 1.41 1.46 1.44